Flag for Vanuatu Weather past 2 weeks in Port Vila, Vanuatu

Now
73 °F

Partly cloudy.


Feels Like: 73 °F
Forecast: 74 / 79 °F
Wind: 6 mph from East

Location: Bauerfield Efate

Current Time: May 30, 2015 at 8:34:50 PM

Latest Report: May 30, 2015 at 7:00 PM


Visibility: N/A

Pressure: 29.98 "Hg

Humidity: 83%

Dew point: 68 °F

Location of Port VilaLocation

Historic Weather in Port Vila — Graph

°F

Port Vila temperature yesterday

Maximum temperature yesterday: 81 °F (at 1:00 PM)
Minimum temperature yesterday: 66 °F (at 11:00 PM)
Average temperature yesterday: 73 °F

Past Weeks' High & Low Weather Summary

 TemperatureHumidityPressure
High82 °F (May 16, 10:00 AM)100% (May 19, 5:00 AM)30.12 "Hg (May 19, 5:00 AM)
Low64 °F (May 19, 5:00 AM)58% (May 18, 12:00 PM)29.83 "Hg (May 17, 12:00 PM)
Average74 °F82%30.01 "Hg
* Reported May 15 7:00 PM — May 30 7:00 PM, Port Vila, Weather by CustomWeather, © 2015

Note: Actual official high and low records may vary slightly from our data, if they occured in-between our weather recording intervals... More about our weather records

Advertising

Port Vila weather history for previous 24 hours

 ConditionsComfort  
Time TempWeatherWind HumidityBarometerVisibility
7:00 PM
Sat, May 30
73 °FPartly cloudy.6 mph83%29.98 "HgN/A
5:00 PM75 °FBroken clouds.9 mph83%29.95 "HgN/A
4:00 PM77 °FBroken clouds.13 mph79%29.95 "HgN/A
3:00 PM75 °FBroken clouds.16 mph94%29.95 "HgN/A
2:00 PM75 °FPartly sunny.12 mph89%29.95 "HgN/A
12:00 PM75 °FPartly sunny.12 mph89%29.98 "HgN/A
8:00 AM75 °FBroken clouds.7 mph89%30.04 "HgN/A
7:00 AM72 °FBroken clouds.7 mph94%30.01 "HgN/A
6:00 AM68 °FPartly cloudy.No wind100%30.01 "HgN/A
5:00 AM68 °FPassing clouds.5 mph94%30.01 "HgN/A
4:00 AM66 °FPartly cloudy.2 mph100%29.98 "HgN/A
3:00 AM68 °FPartly cloudy.2 mph94%30.01 "HgN/A
2:00 AM68 °FPartly cloudy.2 mph94%30.01 "HgN/A
11:00 PM
Fri, May 29
66 °FPassing clouds.2 mph94%30.04 "HgN/A
10:00 PM68 °FPassing clouds.3 mph83%30.07 "HgN/A
9:00 PM68 °FPassing clouds.3 mph83%30.07 "HgN/A
8:00 PM70 °FPassing clouds.7 mph83%30.07 "HgN/A
Weather by CustomWeather, © 2015

See weather overviewHow to use our weather pages